Total_Precipitation_Accumulation
0.84 0.77 0.77 0.72 0.71 0.72 0.77 0.90 1.13 1.01 0.64 0.46 0.46 0.49 0.56 0.62 0.61 0.58 0.57 0.68 0.75 0.84 0.95 1.00 1.09 1.29 1.66 2.24 2.87 3.80 4.42 4.08 3.31 2.81 2.76 3.08 3.53 3.99
0.94 0.91 0.81 0.75 0.76 0.79 0.83 0.84 0.91 1.06 0.85 0.46 0.42 0.44 0.53 0.67 0.76 0.66 0.62 0.76 0.80 0.82 0.84 0.88 0.96 1.14 1.40 1.73 2.19 2.80 3.70 4.18 3.96 3.46 3.11 3.22 3.48 3.88
0.94 0.96 0.88 0.81 0.88 0.91 0.95 0.94 0.89 0.93 0.97 0.57 0.45 0.49 0.64 0.74 0.82 0.76 0.75 0.74 0.75 0.79 0.82 0.87 0.92 1.04 1.25 1.49 1.74 2.13 2.79 3.53 3.98 4.00 3.72 3.49 3.47 3.54
0.98 0.98 0.97 0.91 0.92 0.95 1.02 1.01 0.93 0.87 0.95 0.80 0.60 0.64 0.73 0.82 0.86 0.83 0.82 0.80 0.72 0.76 0.78 0.89 0.95 1.03 1.18 1.35 1.52 1.74 2.14 2.69 3.26 3.71 3.86 3.57 3.40 3.45
0.96 0.99 1.00 1.00 0.93 0.92 1.02 1.06 1.00 0.95 0.99 0.99 0.78 0.70 0.79 0.90 1.01 1.00 0.95 0.93 0.83 0.81 0.82 0.90 1.00 1.02 1.10 1.24 1.44 1.59 1.77 1.96 2.37 3.01 3.62 3.68 3.45 3.42
0.86 0.87 0.96 1.08 1.08 1.08 1.11 1.09 1.12 1.17 1.16 1.15 0.99 0.86 0.90 0.99 1.13 1.19 1.16 1.09 1.02 0.93 0.96 1.01 1.08 1.10 1.07 1.09 1.17 1.30 1.48 1.78 2.12 2.58 3.07 3.45 3.47 3.40
0.87 0.79 0.88 1.12 1.31 1.47 1.51 1.39 1.39 1.52 1.50 1.45 1.32 1.16 1.05 1.11 1.21 1.20 1.27 1.19 1.17 1.11 1.07 1.07 1.03 1.00 0.99 1.01 1.06 1.13 1.24 1.46 1.77 2.12 2.54 2.91 3.18 3.33
0.94 0.83 0.87 1.11 1.26 1.39 1.53 1.49 1.52 1.71 1.82 1.77 1.61 1.38 1.08 0.98 1.06 1.26 1.46 1.61 1.53 1.28 1.19 1.19 1.03 1.02 0.98 0.91 1.04 1.13 1.19 1.34 1.56 1.81 2.12 2.44 2.76 3.08
0.92 0.88 0.90 1.00 1.12 1.15 1.26 1.30 1.30 1.47 1.72 1.83 1.78 1.39 1.17 1.07 1.27 1.51 1.57 1.68 1.55 1.45 1.47 1.53 1.24 1.12 1.02 1.03 1.16 1.14 1.19 1.26 1.38 1.54 1.79 2.04 2.32 2.66
0.95 0.90 0.84 0.88 1.01 1.16 1.24 1.21 1.13 1.19 1.42 1.61 1.80 1.61 1.40 1.42 1.69 1.95 2.06 2.07 1.81 1.67 1.63 1.84 1.52 1.28 1.18 1.14 1.21 1.14 1.13 1.16 1.23 1.32 1.49 1.71 1.95 2.27
0.99 0.93 0.83 0.79 0.99 1.16 1.13 1.11 1.04 1.08 1.19 1.39 1.55 1.63 1.64 1.78 2.08 2.47 2.65 2.64 2.37 2.02 1.81 1.85 1.77 1.61 1.57 1.52 1.44 1.33 1.16 1.09 1.11 1.17 1.27 1.43 1.68 2.04
1.00 0.96 1.02 1.00 1.10 1.12 1.02 1.09 1.19 1.07 1.02 1.06 1.10 1.15 1.20 1.35 1.76 2.23 2.59 2.72 2.49 2.38 2.05 1.87 1.87 1.90 2.25 2.06 1.70 1.41 1.23 1.17 1.12 1.11 1.15 1.20 1.37 1.54
1.02 1.02 0.97 1.11 1.13 1.10 1.07 1.05 1.23 1.15 1.05 1.12 1.09 1.02 1.02 1.13 1.30 1.65 2.18 2.60 2.63 2.38 2.07 2.11 2.24 1.93 2.08 2.17 1.93 1.56 1.23 1.11 1.05 1.09 1.11 1.12 1.16 1.22
0.99 0.92 0.91 1.08 1.13 1.15 1.11 1.15 1.21 1.19 1.11 1.12 1.06 0.99 1.00 1.08 1.22 1.42 1.72 2.05 2.23 2.15 1.96 2.12 2.50 2.16 1.92 1.79 1.78 1.74 1.41 1.20 1.04 1.00 0.99 1.17 1.24 1.26
1.09 1.13 1.10 1.19 1.22 1.13 1.10 1.13 1.09 1.03 1.11 1.14 1.03 0.89 0.88 0.99 1.10 1.20 1.31 1.54 1.75 1.82 1.85 1.95 2.22 2.24 2.09 1.84 1.52 1.45 1.46 1.46 1.22 1.06 1.02 1.02 1.04 1.06
1.25 1.24 1.25 1.27 1.23 1.17 1.11 1.00 0.90 0.92 1.02 1.06 0.99 0.88 0.80 0.86 0.99 1.09 1.20 1.30 1.57 1.73 1.80 1.94 2.18 2.42 2.36 1.78 1.50 1.33 1.19 1.47 1.43 1.19 1.08 1.05 0.98 0.88
1.36 1.40 1.34 1.29 1.27 1.16 1.00 0.88 0.84 0.88 0.94 0.91 0.92 0.92 0.89 0.87 0.90 0.97 1.16 1.27 1.45 1.57 1.75 2.03 2.28 2.40 2.45 2.19 1.85 1.44 1.15 1.15 1.25 1.19 1.13 1.16 1.17 1.03
1.41 1.39 1.21 1.05 1.00 0.96 0.89 0.83 0.81 0.80 0.79 0.83 0.89 0.90 0.90 0.91 0.91 0.92 1.06 1.23 1.37 1.45 1.55 1.78 2.14 2.44 2.60 2.60 2.16 1.58 1.26 1.19 1.30 1.28 1.16 1.17 1.30 1.23
1.20 1.07 0.96 0.89 0.85 0.81 0.78 0.76 0.76 0.72 0.72 0.79 0.84 0.86 0.85 0.89 0.93 0.95 1.01 1.15 1.27 1.39 1.52 1.63 1.89 2.23 2.41 2.54 2.56 1.95 1.48 1.32 1.40 1.55 1.40 1.18 1.17 1.25
0.93 0.91 0.88 0.85 0.86 0.87 0.84 0.81 0.77 0.76 0.77 0.76 0.76 0.79 0.83 0.90 0.93 0.92 0.96 1.09 1.20 1.31 1.44 1.56 1.78 2.04 2.20 2.14 2.24 2.24 1.99 1.59 1.43 1.60 1.59 1.39 1.29 1.40
0.85 0.85 0.84 0.86 0.89 0.90 0.85 0.82 0.81 0.78 0.73 0.73 0.71 0.70 0.74 0.83 0.86 0.83 0.90 1.02 1.12 1.22 1.32 1.43 1.63 1.82 1.97 1.99 1.93 1.93 2.12 2.09 1.66 1.53 1.57 1.58 1.54 1.53
0.83 0.85 0.84 0.86 0.90 0.92 0.88 0.84 0.83 0.79 0.73 0.70 0.67 0.66 0.68 0.76 0.81 0.83 0.89 0.97 1.00 1.08 1.19 1.32 1.47 1.67 1.87 2.02 1.95 1.81 1.94 2.14 2.11 1.84 1.64 1.54 1.55 1.57
0.89 0.90 0.89 0.88 0.87 0.89 0.89 0.85 0.81 0.78 0.74 0.71 0.68 0.67 0.68 0.73 0.75 0.81 0.87 0.89 0.93 0.98 1.08 1.26 1.43 1.59 1.80 1.94 1.96 1.82 1.76 1.88 1.93 1.90 1.98 1.73 1.33 1.13